DW0108 Weather Reports


Display with metric or nautical units.
time (UTC)temp
F
wind
direction
speed
MPH
gust
MPH
rain 1hr
in
rain 24hr
in
rain mn
in
humidity
%
barometer
mb
20260508202840 72 134 2.0 5.0 0.00 0.00 8.55 77 1010.4
20260508201846 71 116 2.0 8.0 0.00 0.00 8.44 79 1010.4
20260508200816 70 77 1.0 4.0 0.00 0.00 8.35 78 1009.8
20260508195823 71 130 1.0 4.0 0.00 0.00 8.25 76 1011.1
20260508194813 71 136 2.0 6.0 0.00 0.00 8.15 76 1011.1
20260508193842 71 166 3.0 6.0 0.00 0.00 8.05 75 1012.1
20260508192812 71 162 2.0 5.0 0.00 0.00 7.95 74 1011.8
20260508191811 71 154 1.0 5.0 0.00 0.00 7.85 74 1011.8
20260508190827 72 156 2.0 5.0 0.00 0.00 7.75 73 1011.8
20260508185811 71 140 2.0 5.0 0.00 0.00 7.65 73 1011.8
20260508184846 72 152 3.0 5.0 0.00 0.00 7.55 72 1011.8
20260508183819 72 156 5.0 9.0 0.00 0.00 7.45 71 1012.5
20260508182821 72 157 3.0 6.0 0.00 0.00 7.35 71 1012.1
20260508180810 72 159 2.0 6.0 0.00 0.00 7.15 70 1012.1
20260508175823 72 160 2.0 5.0 0.00 0.00 7.05 69 1012.5
20260508174824 73 132 1.0 4.0 0.00 0.00 6.95 69 1012.1
20260508173830 71 131 2.0 6.0 0.00 0.00 6.85 71 1012.5
20260508172813 71 146 3.0 6.0 0.00 0.00 6.75 72 1012.8
20260508171819 70 161 3.0 6.0 0.00 0.00 6.65 71 1012.8
20260508170822 70 175 2.0 8.0 0.00 0.00 6.55 72 1013.5
20260508165807 70 145 2.0 4.0 0.00 0.00 6.45 70 1013.5
20260508164828 70 124 1.0 4.0 0.00 0.00 6.35 71 1013.2
20260508162836 70 109 1.0 4.0 0.00 0.00 6.15 71 1013.8
20260508161838 69 113 2.0 5.0 0.00 0.00 6.05 73 1013.8
20260508160837 68 145 2.0 7.0 0.00 0.00 5.95 73 1013.8
20260508155829 68 146 2.0 5.0 0.00 0.00 5.85 75 1014.2
20260508153831 66 134 2.0 4.0 0.00 0.00 5.65 76 1014.2
20260508151838 67 139 2.0 4.0 0.00 0.00 5.45 74 1014.5
20260508150808 67 145 3.0 5.0 0.00 0.00 5.35 75 1014.5
20260508145805 66 148 2.0 4.0 0.00 0.00 5.24 75 1014.8
20260508143804 67 126 1.0 4.0 0.00 0.00 5.04 75 1014.5
20260508142844 66 133 1.0 3.0 0.00 0.00 4.95 75 1014.5
20260508141847 66 111 1.0 3.0 0.00 0.00 4.84 75 1014.8
20260508140809 66 127 1.0 5.0 0.00 0.00 4.75 77 1014.8
20260508135829 65 130 1.0 3.0 0.00 0.00 4.65 77 1014.8
20260508134840 65 129 1.0 4.0 0.00 0.00 4.55 79 1015.2
20260508133809 64 114 1.0 3.0 0.00 0.00 4.45 81 1014.8
20260508132816 64 122 1.0 4.0 0.00 0.00 4.34 81 1014.8
20260508131835 63 145 2.0 3.0 0.00 0.00 4.25 83 1014.8
20260508130831 62 114 1.0 3.0 0.00 0.00 4.15 86 1014.8
20260508124812 61 67 1.0 2.0 0.00 0.00 3.95 93 1015.2
20260508123845 60 100 1.0 2.0 0.00 0.00 3.85 95 1015.2
20260508122825 60 75 0.0 2.0 0.00 0.00 3.75 95 1015.2
20260508121831 59 72 0.0 2.0 0.00 0.00 3.65 95 1015.2
20260508120811 59 131 1.0 2.0 0.00 0.00 3.55 95 1014.8
20260508115837 58 93 0.0 1.0 0.00 0.00 3.45 96 1015.2
20260508114844 58 51 1.0 2.0 0.00 0.00 3.35 95 1015.2
20260508113847 58 45 1.0 2.0 0.00 0.00 3.25 95 1014.8
20260508112847 58 87 0.0 2.0 0.00 0.00 3.15 95 1014.8
20260508111831 59 47 1.0 2.0 0.00 0.00 3.05 95 1015.2
20260508110839 59 105 1.0 2.0 0.00 0.00 2.95 95 1015.2
20260508105813 59 91 0.0 1.0 0.00 0.00 2.85 96 1014.8
20260508104840 59 78 1.0 2.0 0.00 0.00 2.75 96 1014.8
20260508103816 59 94 0.0 1.0 0.00 0.00 2.65 96 1014.8
20260508100817 60 39 0.0 2.0 0.00 0.00 2.35 95 1014.5
20260508095842 60 107 0.0 1.0 0.00 0.00 2.25 95 1014.2
20260508094844 60 79 0.0 1.0 0.00 0.00 2.15 95 1014.5
20260508093820 60 72 0.0 1.0 0.00 0.00 2.04 95 1014.5
20260508092831 60 19 1.0 2.0 0.00 0.00 1.95 95 1014.8
20260508091844 60 42 0.0 1.0 0.00 0.00 1.85 95 1014.5
20260508090839 60 73 0.0 1.0 0.00 0.00 1.75 95 1014.8
20260508085816 60 49 0.0 1.0 0.00 0.00 1.65 95 1014.5
20260508084842 60 64 0.0 1.0 0.00 0.00 1.55 95 1014.8
20260508083829 60 76 1.0 2.0 0.00 0.00 1.45 94 1014.2
20260508082805 60 101 0.0 1.0 0.00 0.00 1.34 94 1014.5
20260508081832 59 111 1.0 2.0 0.00 0.00 1.25 95 1014.5
20260508080831 60 95 1.0 2.0 0.00 0.00 1.14 95 1014.8
20260508075818 60 74 1.0 2.0 0.00 0.00 1.05 95 1014.8
20260508074820 60 104 0.0 2.0 0.00 0.00 0.95 95 1015.2
20260508073817 60 104 0.0 1.0 0.00 0.00 0.85 94 1015.5
20260508072817 60 68 0.0 2.0 0.00 0.00 0.75 93 1015.5
20260508071834 60 40 0.0 1.0 0.00 0.00 0.65 92 1015.9
20260508070813 60 83 0.0 1.0 0.00 0.00 0.55 92 1015.9
20260508065812 60 51 1.0 1.0 0.00 0.00 0.45 92 1015.9
20260508064844 60 31 0.0 1.0 0.00 0.00 0.35 93 1015.9
20260508063843 60 35 0.0 1.0 0.00 0.00 0.25 93 1015.5
20260508062837 61 52 0.0 1.0 0.00 0.00 0.15 92 1015.9
20260508061834 61 65 0.0 1.0 0.00 0.00 0.05 89 1015.9
20260508060824 61 44 1.0 2.0 0.00 0.00 0.00 87 1015.9
20260508055806 61 60 1.0 2.0 0.00 0.00 0.00 87 1015.5
20260508053835 62 76 0.0 1.0 0.00 0.00 0.00 83 1016.2
20260508052834 61 98 0.0 1.0 0.00 0.00 0.00 82 1016.2
20260508051822 61 116 0.0 1.0 0.00 0.00 0.00 82 1016.2
20260508050834 61 70 0.0 1.0 0.00 0.00 0.00 85 1016.5
20260508045844 61 87 0.0 1.0 0.00 0.00 0.00 87 1016.2
20260508044828 61 57 0.0 1.0 0.00 0.00 0.00 86 1016.2
20260508043821 61 96 0.0 1.0 0.00 0.00 0.00 86 1016.2
20260508042841 61 46 0.0 1.0 0.00 0.00 0.00 85 1016.2
20260508040822 62 117 0.0 1.0 0.00 0.00 0.00 81 1016.2
20260508035822 63 50 0.0 2.0 0.00 0.00 0.00 82 1015.9
20260508034811 62 45 0.0 0.0 0.00 0.00 0.00 82 1015.9
20260508032837 63 81 0.0 1.0 0.00 0.00 0.00 82 1015.5
20260508031817 63 52 0.0 2.0 0.00 0.00 0.00 81 1015.5
20260508030831 63 38 0.0 0.0 0.00 0.00 0.00 80 1015.5
20260508025838 63 18 0.0 0.0 0.00 0.00 0.00 80 1015.2
20260508024848 63 35 0.0 1.0 0.00 0.00 0.00 79 1015.5
20260508023848 64 59 0.0 1.0 0.00 0.00 0.00 78 1015.2
20260508022808 64 54 0.0 1.0 0.00 0.00 0.00 77 1015.2
20260508021842 64 75 1.0 2.0 0.00 0.00 0.00 77 1015.2
20260508020809 64 83 0.0 1.0 0.00 0.00 0.00 76 1015.2
20260508015807 65 55 0.0 2.0 0.00 0.00 0.00 74 1015.2
20260508014804 65 83 0.0 2.0 0.00 0.00 0.00 72 1015.2
20260508012821 66 109 0.0 1.0 0.00 0.00 0.00 70 1015.2
20260508011820 66 115 1.0 2.0 0.00 0.00 0.00 69 1015.2
20260508010805 66 127 0.0 2.0 0.00 0.00 0.00 68 1015.2
20260508003831 67 151 1.0 3.0 0.00 0.00 0.00 66 1015.2
20260508002839 68 141 1.0 3.0 0.00 0.00 0.00 65 1015.2
20260508001844 68 145 2.0 4.0 0.00 0.00 0.00 64 1015.2
20260508000833 68 144 2.0 6.0 0.00 0.00 0.00 64 1015.2
20260507235832 69 156 1.0 4.0 0.00 0.00 0.10 65 1015.5
20260507234810 69 151 2.0 5.0 0.00 0.00 0.10 63 1015.2
20260507233834 69 160 2.0 6.0 0.00 0.00 0.10 62 1015.5
20260507232812 69 151 3.0 5.0 0.00 0.00 0.10 62 1015.9
20260507231827 69 145 3.0 6.0 0.00 0.00 0.10 62 1015.5
20260507230813 69 157 3.0 7.0 0.00 0.00 0.10 61 1015.5
20260507225805 70 156 2.0 5.0 0.00 0.00 0.10 61 1015.9
20260507224842 71 140 1.0 2.0 0.00 0.00 0.10 51 1015.2
20260507223816 70 133 1.0 3.0 0.00 0.00 0.10 51 1015.9
20260507222848 70 141 1.0 3.0 0.00 0.00 0.10 51 1015.9
20260507221817 71 112 0.0 2.0 0.00 0.00 0.10 52 1015.9
20260507220812 71 139 1.0 4.0 0.00 0.00 0.10 53 1015.9
20260507215809 71 138 0.0 2.0 0.00 0.00 0.10 52 1015.9
20260507214832 71 150 2.0 4.0 0.00 0.00 0.10 52 1015.9
20260507213847 71 123 1.0 3.0 0.00 0.00 0.10 50 1015.9
20260507211818 71 103 2.0 4.0 0.00 0.00 0.10 53 1016.5
20260507210839 71 85 1.0 2.0 0.00 0.00 0.10 52 1016.5
20260507205829 71 130 2.0 3.0 0.00 0.00 0.10 53 1016.9